• In Portugal
  • List of Countries
  • For 7 days
  • Water Temperature
  • Satellite Maps
  • Weather Map
  • Weather Widgets
  • user-avatar
    Login

    Hourly Weather Golinsk

    Today, 20 April, Friday

    Time Temperature Precipitation Wind Pressure Humidity
    00:00 +13°C° 0 mm 1 mps 729 mmHg 88%
    01:00 +12°C° 0 mm 1 mps 729 mmHg 89%
    02:00 +12°C° 0 mm 1 mps 729 mmHg 90%
    03:00 +12°C° 0 mm 1 mps 729 mmHg 91%
    04:00 +11°C° 0 mm 1 mps 729 mmHg 91%
    05:00 +12°C° 0 mm 1 mps 729 mmHg 87%
    06:00 +14°C° 0 mm 1 mps 729 mmHg 83%
    07:00 +15°C° 0 mm 1 mps 729 mmHg 79%
    08:00 +18°C° 0 mm 1 mps 729 mmHg 71%
    09:00 +19°C° 0 mm 1 mps 729 mmHg 63%
    10:00 +21°C° 0 mm 1 mps 729 mmHg 54%
    11:00 +22°C° 0 mm 1 mps 729 mmHg 51%
    12:00 +23°C° 0 mm 1 mps 729 mmHg 47%
    13:00 +24°C° 0 mm 2 mps 729 mmHg 44%
    14:00 +24°C° 0 mm 2 mps 728 mmHg 44%
    15:00 +24°C° 0 mm 2 mps 728 mmHg 45%
    16:00 +24°C° 0 mm 2 mps 727 mmHg 46%
    17:00 +21°C° 0 mm 2 mps 726 mmHg 52%
    18:00 +19°C° 0 mm 2 mps 726 mmHg 59%
    19:00 +17°C° 0 mm 2 mps 725 mmHg 65%
    20:00 +16°C° 0 mm 2 mps 725 mmHg 67%
    21:00 +15°C° 0 mm 2 mps 725 mmHg 68%
    22:00 +15°C° 0 mm 2 mps 725 mmHg 70%
    23:00 +14°C° 0 mm 2 mps 724 mmHg 70%

    Tomorrow, 21 April, Saturday

    Time Temperature Precipitation Wind Pressure Humidity
    00:00 +14°C° 0 mm 2 mps 724 mmHg 71%
    01:00 +13°C° 0 mm 2 mps 724 mmHg 72%
    02:00 +13°C° 0 mm 2 mps 724 mmHg 73%
    03:00 +13°C° 0 mm 2 mps 724 mmHg 73%
    04:00 +12°C° 0 mm 2 mps 723 mmHg 74%
    05:00 +14°C° 0 mm 2 mps 724 mmHg 71%
    06:00 +15°C° 0 mm 2 mps 724 mmHg 69%
    07:00 +16°C° 0 mm 2 mps 724 mmHg 66%
    08:00 +17°C° 0 mm 2 mps 724 mmHg 61%
    09:00 +19°C° 0 mm 2 mps 724 mmHg 57%
    10:00 +21°C° 0 mm 2 mps 724 mmHg 52%
    11:00 +23°C° 0 mm 2 mps 724 mmHg 51%
    12:00 +23°C° 0 mm 2 mps 724 mmHg 50%
    13:00 +24°C° 0 mm 2 mps 724 mmHg 48%
    14:00 +22°C° 0.1 mm 3 mps 724 mmHg 50%
    15:00 +22°C° 0.1 mm 3 mps 723 mmHg 52%
    16:00 +22°C° 0.1 mm 3 mps 723 mmHg 54%
    17:00 +20°C° 0 mm 3 mps 723 mmHg 61%
    18:00 +18°C° 0 mm 3 mps 723 mmHg 68%
    19:00 +16°C° 0 mm 2 mps 723 mmHg 74%
    20:00 +14°C° 0 mm 2 mps 723 mmHg 76%
    21:00 +13°C° 0 mm 2 mps 723 mmHg 78%
    22:00 +12°C° 0 mm 1 mps 723 mmHg 81%
    23:00 +11°C° 0 mm 1 mps 723 mmHg 80%

    Day after tomorrow, 22 April, Sunday

    Time Temperature Precipitation Wind Pressure Humidity
    00:00 +11°C° 0 mm 1 mps 723 mmHg 80%
    01:00 +10°C° 0 mm 1 mps 723 mmHg 80%
    02:00 +9°C° 0 mm 1 mps 723 mmHg 80%
    03:00 +9°C° 0 mm 1 mps 723 mmHg 79%
    04:00 +8°C° 0 mm 1 mps 723 mmHg 79%
    05:00 +10°C° 0 mm 1 mps 723 mmHg 74%
    06:00 +11°C° 0 mm 1 mps 723 mmHg 70%
    07:00 +12°C° 0 mm 1 mps 723 mmHg 66%
    08:00 +14°C° 0 mm 1 mps 723 mmHg 61%
    09:00 +16°C° 0 mm 1 mps 723 mmHg 55%
    10:00 +19°C° 0 mm 1 mps 723 mmHg 50%
    11:00 +20°C° 0 mm 1 mps 723 mmHg 47%
    12:00 +21°C° 0 mm 1 mps 722 mmHg 45%
    13:00 +22°C° 0 mm 1 mps 722 mmHg 42%
    14:00 +22°C° 0 mm 1 mps 722 mmHg 43%
    15:00 +22°C° 0 mm 1 mps 721 mmHg 44%
    16:00 +22°C° 0 mm 1 mps 721 mmHg 45%
    17:00 +20°C° 0 mm 1 mps 720 mmHg 53%
    18:00 +18°C° 0 mm 1 mps 720 mmHg 60%
    19:00 +15°C° 0 mm 1 mps 719 mmHg 68%
    20:00 +14°C° 0 mm 1 mps 720 mmHg 70%
    21:00 +13°C° 0 mm 1 mps 720 mmHg 72%
    22:00 +13°C° 0 mm 1 mps 720 mmHg 74%
    23:00 +13°C° 0 mm 1 mps 719 mmHg 76%

    23 April, Monday

    Time Temperature Precipitation Wind Pressure Humidity
    00:00 +12°C° 0 mm 2 mps 719 mmHg 79%
    01:00 +12°C° 0 mm 2 mps 719 mmHg 81%
    02:00 +12°C° 0 mm 2 mps 718 mmHg 83%
    03:00 +12°C° 0 mm 2 mps 718 mmHg 86%
    04:00 +12°C° 0 mm 2 mps 718 mmHg 88%
    05:00 +14°C° 0 mm 2 mps 718 mmHg 85%
    06:00 +15°C° 0 mm 2 mps 718 mmHg 83%
    07:00 +16°C° 0 mm 3 mps 718 mmHg 80%
    08:00 +17°C° 0.1 mm 4 mps 718 mmHg 76%
    09:00 +18°C° 0.1 mm 4 mps 718 mmHg 72%
    10:00 +20°C° 0.1 mm 5 mps 718 mmHg 69%
    11:00 +19°C° 0.5 mm 5 mps 717 mmHg 69%
    12:00 +19°C° 0.5 mm 6 mps 717 mmHg 69%
    13:00 +19°C° 0.5 mm 6 mps 717 mmHg 70%
    14:00 +19°C° 0.7 mm 6 mps 717 mmHg 71%
    15:00 +19°C° 0.7 mm 6 mps 716 mmHg 72%
    16:00 +17°C° 0.7 mm 7 mps 716 mmHg 73%
    17:00 +16°C° 0.1 mm 6 mps 717 mmHg 77%
    18:00 +14°C° 0.1 mm 5 mps 717 mmHg 80%
    19:00 +12°C° 0.1 mm 4 mps 717 mmHg 84%
    20:00 +11°C° 0 mm 4 mps 718 mmHg 85%
    21:00 +10°C° 0 mm 4 mps 718 mmHg 87%
    22:00 +9°C° 0 mm 3 mps 719 mmHg 89%
    23:00 +8°C° 0 mm 3 mps 719 mmHg 89%

    24 April, Tuesday

    Time Temperature Precipitation Wind Pressure Humidity
    00:00 +8°C° 0 mm 3 mps 719 mmHg 90%
    01:00 +7°C° 0 mm 2 mps 719 mmHg 90%
    02:00 +7°C° 0 mm 2 mps 720 mmHg 90%
    03:00 +7°C° 0 mm 2 mps 720 mmHg 90%
    04:00 +7°C° 0 mm 3 mps 720 mmHg 90%
    05:00 +8°C° 0 mm 3 mps 720 mmHg 86%
    06:00 +8°C° 0 mm 4 mps 720 mmHg 82%
    07:00 +9°C° 0 mm 5 mps 721 mmHg 79%
    08:00 +10°C° 0 mm 5 mps 721 mmHg 73%
    09:00 +12°C° 0 mm 5 mps 721 mmHg 67%
    10:00 +13°C° 0 mm 5 mps 721 mmHg 61%
    11:00 +13°C° 0 mm 5 mps 721 mmHg 60%
    12:00 +14°C° 0 mm 5 mps 721 mmHg 59%
    13:00 +15°C° 0 mm 5 mps 721 mmHg 58%
    14:00 +15°C° 0.1 mm 5 mps 721 mmHg 60%
    15:00 +15°C° 0.1 mm 5 mps 720 mmHg 62%
    16:00 +15°C° 0.1 mm 4 mps 720 mmHg 64%
    17:00 +13°C° 0 mm 3 mps 720 mmHg 69%
    18:00 +12°C° 0 mm 3 mps 719 mmHg 74%
    19:00 +12°C° 0 mm 2 mps 719 mmHg 79%
    20:00 +12°C° 0 mm 2 mps 719 mmHg 79%
    21:00 +12°C° 0 mm 2 mps 719 mmHg 80%
    22:00 +12°C° 0 mm 2 mps 719 mmHg 81%
    23:00 +10°C° 0 mm 2 mps 719 mmHg 81%

    25 April, Wednesday

    Time Temperature Precipitation Wind Pressure Humidity
    00:00 +10°C° 0 mm 3 mps 718 mmHg 82%
    01:00 +10°C° 0 mm 3 mps 718 mmHg 83%
    02:00 +10°C° 0 mm 3 mps 718 mmHg 84%
    03:00 +9°C° 0 mm 3 mps 718 mmHg 84%
    04:00 +9°C° 0 mm 3 mps 717 mmHg 84%
    05:00 +10°C° 0 mm 3 mps 717 mmHg 81%
    06:00 +11°C° 0 mm 4 mps 717 mmHg 78%
    07:00 +13°C° 0 mm 4 mps 717 mmHg 75%
    08:00 +14°C° 0 mm 5 mps 717 mmHg 69%
    09:00 +16°C° 0 mm 6 mps 717 mmHg 64%
    10:00 +19°C° 0 mm 6 mps 717 mmHg 58%
    11:00 +18°C° 0.1 mm 7 mps 717 mmHg 57%
    12:00 +20°C° 0.1 mm 7 mps 717 mmHg 55%
    13:00 +20°C° 0.1 mm 8 mps 716 mmHg 54%
    14:00 +18°C° 0.5 mm 7 mps 716 mmHg 58%
    15:00 +17°C° 0.5 mm 7 mps 716 mmHg 63%
    16:00 +17°C° 0.5 mm 7 mps 716 mmHg 67%
    17:00 +15°C° 0.2 mm 5 mps 716 mmHg 73%
    18:00 +13°C° 0.2 mm 4 mps 716 mmHg 80%
    19:00 +11°C° 0.2 mm 3 mps 716 mmHg 86%
    20:00 +10°C° 0.2 mm 3 mps 716 mmHg 87%
    21:00 +10°C° 0.2 mm 3 mps 717 mmHg 88%
    22:00 +9°C° 0.2 mm 3 mps 718 mmHg 88%
    23:00 +8°C° 0.2 mm 3 mps 718 mmHg 89%
    Show more